Location: Unspecified
(44.4377°N, 88.0525°W)
Time: 05:32:35
(UTC-05:00)

CZ-3 Stage 3 - Visible Passes

Search period start: 20 August 2018 00:00
Search period end: 30 August 2018 00:00
Orbit: 375 x 34817 km, 30.6° (Epoch: 18 August)

Date Brightness Start Highest point End Pass type
(mag) Time Alt. Az. Time Alt. Az. Time Alt. Az.
20 Aug 7.6 17:47:48 10° SSE 01:45:45 70° S 02:46:16 10° ESE visible
21 Aug 8.5 16:58:23 10° E 21:24:12 39° E 22:56:49 10° E visible
22 Aug 6.7 21:09:30 10° SSW 00:09:32 41° SW 06:12:54 10° SSE visible
23 Aug 7.6 17:36:13 10° SSE 01:33:23 71° S 02:36:11 10° ESE visible
24 Aug 8.5 16:44:27 10° E 21:12:33 39° E 22:46:31 10° E visible
25 Aug 6.7 20:58:27 10° SSW 23:57:51 42° SW 06:02:46 10° SSE visible
26 Aug 7.6 17:24:41 10° SSE 01:20:47 71° S 02:26:04 10° ESE visible
27 Aug 8.4 16:30:33 10° E 21:00:51 39° E 22:36:10 10° E visible
28 Aug 6.7 20:47:24 10° SSW 23:46:10 43° SW 05:52:35 10° SSE visible
